Location: Stockholm
(59.3330°N, 18.0500°E)
Time: 14:19:39
(UTC+01:00)

Envisat - Pass Details

Date: 03 December 2022
Orbit: 763 x 765 km, 98.2° (Epoch: 29 January)

Event Time Altitude Azimuth Distance (km) Brightness Sun altitude
Rises 03:36:20 0° 19° (NNE) 3,250 6.6 -34.2°
Reaches altitude 10° 03:38:47 10° 26° (NNE) 2,319 5.9 -33.9°
Enters shadow 03:43:28 40° 92° (E) 1,119 4.1 -33.3°
